Simultaneous Nadir Overpasses (SNOs) Predictions

Prediction of SNOs between LANDSAT-8 and NOAA-19 Satellite Orbit:

Table of predicted SNOs for the next 14.0 days since TLE Epoch: 4/13/2019
Index Date (LANDSAT-8) Time (LANDSAT-8) Lat,Lon (LANDSAT-8) SZA (LANDSAT-8 ) Date (NOAA-19) Time (NOAA-19) Lat,Lon (NOAA-19) SZA (NOAA-19 ) Distance(km) Time Diff (sec)
1 04/15/2019 00:38:01 78.67,-170.95 69.63 04/15/2019 00:37:18 78.69,-171.07 69.62 3.24 43
2 04/15/2019 01:27:29 -78.64, -3.48 110.43 04/15/2019 01:28:12 -78.65, -3.52 110.41 1.48 43
3 04/17/2019 06:11:45 -78.66, -74.41 111.17 04/17/2019 06:10:40 -78.69, -74.37 111.16 3.32 65
4 04/17/2019 07:01:11 78.65, 93.17 68.81 04/17/2019 07:01:45 78.66, 93.09 68.82 1.91 34
5 04/19/2019 11:45:27 78.67, 22.22 68.08 04/19/2019 11:44:13 78.70, 22.26 68.09 3.15 74
6 04/19/2019 12:34:55 -78.65,-170.29 111.97 04/19/2019 12:35:07 -78.67,-170.27 111.94 2.94 12
7 04/21/2019 18:08:37 78.65, -73.69 67.29 04/21/2019 18:08:40 78.68, -73.62 67.32 3.41 3
8 04/23/2019 23:42:20 -78.69, 23.07 113.41 04/23/2019 23:42:02 -78.71, 22.95 113.41 3.26 18
9 04/24/2019 00:31:54 78.33,-171.14 66.12 04/24/2019 00:32:57 78.31,-167.16 66.41 89.66 63
10 04/26/2019 05:16:02 78.69, 119.62 65.87 04/26/2019 05:15:35 78.72, 119.56 65.89 3.70 27




NCC Satellite Simultaneous Nadir Overpasses (SNOs) Prediction Service
